Regional Weather Roundup
Issued by NWS

Home | Current Version | Previous Version | Text Only | Print | Product List | Glossary Off
Versions: 1 2 3 4 5 6 7 8 9 10 11 12 13 14 15 16 17 18 19 20 21 22 23 24 25 26 27 28 29 30 31 32 33 34 35 36 37 38 39 40 41 42 43 44 45 46 47 48 49 50

024
ASUS45 KCYS 261910
RWRWY

WYOMING REGIONAL WEATHER ROUNDUP
NATIONAL WEATHER SERVICE CHEYENNE WY
100 PM MDT THU APR 26 2018

NOTE:  "FAIR" INDICATES FEW OR NO CLOUDS BELOW 12,000 FEET
WITH NO SIGNIFICANT WEATHER AND/OR OBSTRUCTIONS TO VISIBILITY.

WYZ001-262000-
YELLOWSTONE NATIONAL PARK

CITY           SKY/WX    TMP DP  RH WIND       PRES   REMARKS
LK YELLOWSTONE   N/A     43  18  36 E5        30.36F
W YELLOWSTONE  NOT AVBL

$$
WYZ002>013-054>058-071-098>099-262000-
NORTHERN WYOMING

CITY           SKY/WX    TMP DP  RH WIND       PRES   REMARKS
JACKSON        FAIR      55   6  14 CALM      30.30S
CODY           FAIR      58  24  27 SE6       30.27F
GREYBULL       FAIR      57  31  37 W6        30.27F
WORLAND        FAIR      58  30  34 N7        30.28F
SHERIDAN       FAIR      62  34  35 NE7       30.24F
BUFFALO        FAIR      57  31  37 SW8       30.27F
GILLETTE       FAIR      56  29  35 VRB6      30.25F
HULETT         FAIR      55  28  35 W12G18    30.24F
NEWCASTLE      FAIR      54  27  35 NW14G20   30.25F

$$
WYZ014>020-022>026-101>103-262000-
CENTRAL WYOMING

CITY           SKY/WX    TMP DP  RH WIND       PRES   REMARKS
BIG PINEY      FAIR      53  20  27 MISG      30.32F
PINEDALE       FAIR      52  21  30 NW5       30.33F
DUBOIS         FAIR      54  18  24 E6        30.29F
LANDER         FAIR      56  28  34 VRB6      30.27F
RIVERTON       FAIR      56  29  35 SE6       30.29F
CASPER         FAIR      53  27  36 CALM      30.29F
DOUGLAS        FAIR      56  29  35 NW10G17   30.28F

$$
WYZ021-027>030-104>119-262000-
SOUTHERN WYOMING

CITY           SKY/WX    TMP DP  RH WIND       PRES   REMARKS
EVANSTON       FAIR      59  27  29 NW3       30.29F
KEMMERER       FAIR      55  19  24 E3        30.32F
FORT BRIDGER   CLEAR     57  23  26 NE7       30.33F
ROCK SPRINGS   FAIR      54  23  30 SE6       30.31F
DIXON          FAIR      55  20  25 NW8G17    30.32F
RAWLINS        FAIR      51  21  30 VRB3      30.32F
SARATOGA       FAIR      48  19  32 W3        30.33F
LARAMIE        FAIR      46  20  35 NW10      30.30F
CHEYENNE       PTSUNNY   49  24  37 VRB3      30.30S
TORRINGTON     PTSUNNY   57  27  31 NW10      30.25F
PINE BLUFFS    FAIR      55  27  33 N13G22    30.28F

$$




USA.gov is the U.S. government's official web portal to all federal, state and local government web resources and services.